This demonstration page uses our WeatherBlox Daily Observations layout. Learn more.

Left ArrowRight Arrow

Hourly Observations for January 18, 2021

Temp ( °F °C ) Dew Point ( °F °C ) Humidity (%) Winds ( mph kmh ) Pressure ( in mb ) Visibility ( mi km ) Precip ( " mm )
12:30 am 00:30 Mostly Cloudy 33 0.6 31 -0.6 92 92 WNW 17 28 30.07 1018 10 16 0.00 0.00
12:42 am 00:42 Mostly Cloudy 33 0.6 30 -1.1 89 89 WNW 16 26 30.08 1019 10 16 0.00 0.00
12:53 am 00:53 Mostly Cloudy 33 0.6 30 -1.1 89 89 WNW 16 26 30.06 1018 10 16 0.00 0.00
1:36 am 01:36 Cloudy 34 1.1 31 -0.6 89 89 WNW 18 30 30.11 1020 10 16 0.00 0.00
1:53 am 01:53 Cloudy 34 1.1 30 -1.1 85 85 WNW 21 33 30.08 1019 10 16 0.00 0.00
2:13 am 02:13 Cloudy 34 1.1 29 -1.7 82 82 NW 21 33 30.13 1020 10 16 0.00 0.00
2:53 am 02:53 Mostly Cloudy 33 0.6 28 -2.2 82 82 WNW 13 20 30.13 1020 10 16 0.00 0.00
3:53 am 03:53 Cloudy 33 0.6 28 -2.2 82 82 NW 16 26 30.15 1021 10 16 0.00 0.00
4:53 am 04:53 Cloudy 32 0 27 -2.8 82 82 WNW 14 22 30.16 1022 10 16 0.00 0.00
5:53 am 05:53 Mostly Clear 27 -2.8 24 -4.4 89 89 WNW 10 17 30.20 1023 10 16 0.00 0.00
6:53 am 06:53 Partly Cloudy 28 -2.2 24 -4.4 85 85 WNW 9 15 30.22 1024 10 16 0.00 0.00
7:53 am 07:53 Mostly Cloudy 24 -4.4 21 -6.1 88 88 W 8 13 30.23 1024 10 16 0.00 0.00
8:53 am 08:53 Cloudy 30 -1.1 26 -3.3 85 85 W 7 11 30.24 1024 10 16 0.00 0.00
9:12 am 09:12 Cloudy 30 -1.1 26 -3.3 85 85 W 7 11 30.28 1025 10 16 0.00 0.00
9:53 am 09:53 Cloudy 32 0 28 -2.2 85 85 WSW 10 17 30.25 1025 10 16 0.00 0.00
10:07 am 10:07 Cloudy 32 0 28 -2.2 85 85 WSW 14 22 30.28 1025 10 16 0.00 0.00
10:33 am 10:33 Cloudy 33 0.6 29 -1.7 85 85 WSW 12 19 30.28 1026 10 16 0.00 0.00
10:53 am 10:53 Cloudy 33 0.6 28 -2.2 82 82 W 12 19 30.27 1025 10 16 0.00 0.00
11:53 am 11:53 Cloudy with Light Snow 35 1.7 31 -0.6 85 85 W 13 20 30.25 1025 4 6 0.00 0.00
12:10 pm 12:10 Cloudy 36 2.2 31 -0.6 82 82 WNW 14 22 30.26 1025 10 16 0.00 0.00
12:53 pm 12:53 Cloudy 38 3.3 30 -1.1 73 73 WNW 13 20 30.25 1025 10 16 0.00 0.00
1:53 pm 13:53 Cloudy 39 3.9 28 -2.2 65 65 NW 22 35 30.26 1025 10 16 0.00 0.00
2:53 pm 14:53 Cloudy 38 3.3 26 -3.3 62 62 NW 20 31 30.28 1026 10 16 0.00 0.00
3:53 pm 15:53 Cloudy 37 2.8 26 -3.3 65 65 WNW 17 28 30.31 1026 10 16 0.00 0.00
4:53 pm 16:53 Cloudy 36 2.2 26 -3.3 67 67 WNW 13 20 30.34 1027 10 16 0.00 0.00
5:53 pm 17:53 Cloudy 34 1.1 26 -3.3 73 73 WNW 14 22 30.37 1029 10 16 0.00 0.00
6:53 pm 18:53 Mostly Cloudy 33 0.6 25 -3.9 72 72 WNW 13 20 30.39 1029 10 16 0.00 0.00
7:53 pm 19:53 Clear 28 -2.2 23 -5 81 81 W 8 13 30.43 1031 10 16 0.00 0.00
8:53 pm 20:53 Clear 26 -3.3 22 -5.6 84 84 W 10 17 30.43 1031 10 16 0.00 0.00
9:53 pm 21:53 Cloudy 30 -1.1 23 -5 75 75 W 13 20 30.45 1031 10 16 0.00 0.00
10:53 pm 22:53 Cloudy 30 -1.1 23 -5 75 75 W 10 17 30.46 1031 10 16 0.00 0.00
11:53 pm 23:53 Mostly Clear 25 -3.9 20 -6.7 81 81 SW 9 15 30.46 1031 10 16 0.00 0.00

Powered by AerisWeather